Vertical_Velocity
4 0 -2 0 -0 -1 -1 -2 -2 -0 -1 -1 1 0 1 0 -0 -1 -1 -2 -1 -0 -1 -1 -2 -1 -1 -0 -1 -1 -0 -1 0 -2 -2 -3 -2 -2 -2 -1 0 1 2
4 1 -0 0 -1 -1 -1 1 -2 -0 1 -0 -2 -1 0 -1 -0 -1 -1 -1 -1 -2 -1 -1 -0 -0 0 0 -1 -2 -2 -1 -1 -2 -2 -3 -2 -1 0 0 1 1 -1
2 1 0 -0 -1 -2 -1 -1 -1 -1 -1 -2 -2 -2 -1 -0 -1 -1 -2 -1 -1 -0 0 -0 -1 -2 -1 -2 -0 0 -0 -1 -2 -1 -2 -1 -1 -1 -3 -3 -4 -4 -2
1 -1 -0 -2 -1 -1 -1 -1 -2 -1 -0 -2 -2 -2 -1 -1 -1 -3 -0 -1 -1 -0 0 0 -0 -1 -1 0 -1 -1 -1 -2 1 1 -0 -1 1 -2 -2 -2 -1 -0 -2
-0 0 -1 -3 -1 -0 -1 -0 -1 -1 -1 -1 -0 -1 -2 -2 -1 -1 -0 -1 -2 -1 -1 -1 0 -0 -1 -2 -1 -1 -1 -1 -1 -2 -1 -2 -2 -2 -2 -3 -2 -4 -2
0 -0 -1 -1 -1 0 -0 -1 -1 -3 -1 -0 1 -2 -1 -1 0 1 -1 -1 -1 -1 -1 0 -1 -1 -1 -1 -1 -2 -1 -2 -1 1 -2 -0 0 -0 -1 0 -0 1 0
-0 -3 -1 -0 -2 -1 0 -0 -1 -0 -1 -1 -1 -2 -2 -1 -1 -1 -1 -1 -1 -1 -1 -2 -2 -1 -2 -2 -2 -1 -0 -0 -2 -2 -1 -2 -1 -1 -1 -1 0 -0 -0
2 -0 -1 -0 -1 -2 -2 -0 1 0 -1 -1 -1 -1 -1 -2 -1 -1 -1 -1 -1 -1 -1 -1 -1 -2 -1 -1 -0 -0 0 -1 0 -1 0 -2 -3 -3 -1 0 0 0 -0
0 1 -1 -1 -0 -3 0 -1 -0 0 -0 -3 -4 -1 -0 1 1 -1 -0 -1 -1 -1 -1 -2 -2 -1 -2 -2 -2 -3 -2 -2 -0 2 2 -2 -0 -1 -2 -3 -4 -3 -3
-1 0 -0 -0 -1 1 -1 -1 -0 -1 -1 -0 -1 -3 1 0 -1 -2 -1 -2 -1 -0 -1 -3 -4 -4 -4 -3 -2 -3 -2 -3 -2 -1 -1 -2 -1 -2 -1 1 1 0 0
-2 -2 -1 -1 -1 -1 -0 -2 -2 -0 -0 -0 -0 -0 -2 -3 -2 -1 0 1 1 0 -1 -1 -1 -1 -1 -2 -2 -1 -2 -2 -2 -2 1 -3 0 0 1 -0 -1 -2 -2
-0 -0 -2 -0 -1 -2 -1 -1 -1 -1 -0 -1 0 -1 0 -3 -0 -1 -1 -1 -2 -2 -2 -1 -2 -2 -1 1 -5 -3 -1 -1 -1 -2 -0 -3 2 2 2 1 -2 -1 -1
-1 0 -1 -1 -1 -2 0 -3 -0 -1 -1 -0 -1 -2 -1 -1 1 4 -2 -0 -2 -1 1 2 -1 -0 -2 1 -0 -0 -0 0 0 -1 -0 -2 -4 -2 -3 -1 0 -0 -2
-1 -1 -1 -0 -1 -2 1 -5 -0 -1 -1 -0 -1 -3 -4 -4 -2 -3 2 -3 -2 -3 -0 -2 -2 -2 0 -2 1 1 -1 -2 -5 -4 -1 -1 -2 -3 -1 -2 -3 -1 -0
-3 -1 -3 0 0 -1 -3 -1 -0 -0 1 0 -0 -2 2 -2 0 -1 -3 1 0 4 -3 -3 -1 2 -2 -1 -2 -2 -0 3 3 1 -0 2 -1 -0 0 -0 4 1 0
-2 -2 0 -1 2 1 -0 -2 -1 -1 -4 -2 0 -0 -5 1 -1 -0 -2 -1 -3 -1 -4 1 -2 -3 -2 -1 -1 -1 -2 -2 0 3 3 -3 -0 -1 -2 -5 -4 -3 -4
2 1 -2 -4 -1 -2 1 2 -4 -2 4 -4 -1 -0 -1 -2 -0 8 -13 -4 -3 0 2 2 -2 -1 0 -0 0 -1 -0 1 0 3 -0 -0 0 -4 2 7 -1 2 -1
-3 4 -1 -1 -1 -2 -1 -0 -2 -1 -2 -1 -1 2 2 2 4 -3 1 4 1 3 0 -2 -1 -1 -1 -1 -1 -1 -1 -1 -1 -1 -1 -1 -4 5 -6 -10 0 12 8
-15 9 1 -1 2 0 -2 -1 -3 0 -3 2 -1 -0 -0 1 3 -0 2 -0 1 -2 -1 -1 -2 1 -3 -2 -2 2 -0 -2 -3 -2 -2 1 -4 -2 -2 -3 -0 0 -3
-10 -9 9 2 -1 0 -1 -0 -2 -2 -2 -1 -1 -1 -1 -2 0 -0 1 -2 -1 -3 -0 -1 -1 1 1 0 -1 0 -0 -4 -5 2 3 2 -0 3 -6 0 -1 -4 -7
-8 -14 2 6 -2 -1 2 -2 -3 -2 -1 -0 0 -2 0 -0 -1 -0 -2 -2 -1 -3 1 -2 0 -2 -1 2 -1 -1 0 -4 -0 -4 1 -5 0 10 3 -3 -3 1 2
-2 -10 -4 5 2 2 1 -1 -3 -2 1 -1 1 -2 1 2 -0 1 -1 3 5 1 2 1 -2 -3 -5 -0 2 0 10 9 -6 -9 -0 -3 -5 -3 9 4 -2 -4 1
10 -11 -5 2 2 1 -1 -0 -2 1 -3 -0 -1 -1 -1 -0 0 -2 1 -1 1 6 -1 1 0 0 -2 -5 -3 -1 1 4 3 12 0 -1 -4 -2 -8 -7 1 -1 2
7 -2 -14 -3 5 3 -2 3 -1 0 -2 0 -1 1 -1 -0 2 0 -0 1 -2 -2 0 -0 0 -3 -1 -2 -1 -6 -10 -7 -6 5 13 6 -0 7 3 8 0 -3 0
10 2 -1 -5 9 3 -1 5 -1 -3 1 1 -1 2 -0 1 -0 -0 -2 -2 -2 4 -0 -1 -0 -2 1 4 2 2 1 -3 -7 -14 -3 7 7 -0 -3 -7 -9 -4 -7
-8 5 -1 -5 6 4 -2 6 0 -3 -0 2 2 -3 1 -0 -0 -0 1 1 -1 -2 1 1 -1 0 1 -0 -2 -5 -3 -2 3 0 -5 -3 -8 8 -0 2 -6 -6 -9
Height
5877 5877 5877 5876 5875 5874 5872 5871 5870 5870 5869 5868 5868 5867 5867 5868 5868 5868 5867 5867 5866 5866 5866 5865 5865 5865 5865 5865 5864 5864 5863 5863 5862 5862 5860 5861 5860 5860 5860 5860 5861 5861 5861
5877 5878 5878 5876 5875 5873 5872 5872 5871 5871 5869 5869 5868 5868 5868 5868 5867 5867 5867 5867 5867 5866 5866 5866 5866 5865 5865 5865 5865 5864 5864 5864 5863 5862 5862 5861 5861 5860 5861 5861 5861 5861 5861
5877 5878 5878 5876 5875 5874 5872 5872 5872 5872 5871 5870 5869 5868 5868 5868 5868 5868 5868 5867 5867 5867 5867 5866 5866 5865 5865 5865 5865 5865 5865 5864 5864 5863 5863 5863 5862 5862 5862 5861 5861 5861 5861
5878 5878 5877 5876 5875 5873 5872 5872 5873 5873 5872 5871 5871 5870 5870 5870 5869 5869 5868 5868 5868 5868 5867 5867 5867 5866 5865 5865 5865 5865 5865 5865 5864 5864 5863 5863 5862 5862 5862 5862 5862 5861 5861
5878 5877 5876 5875 5874 5873 5872 5872 5872 5873 5872 5872 5871 5871 5870 5870 5870 5870 5870 5870 5870 5870 5869 5868 5868 5867 5867 5866 5866 5866 5866 5865 5865 5864 5863 5863 5862 5862 5862 5862 5861 5861 5861
5876 5875 5874 5874 5874 5873 5872 5872 5871 5871 5871 5871 5871 5871 5871 5870 5871 5871 5871 5871 5871 5871 5870 5869 5869 5869 5868 5867 5867 5866 5866 5866 5866 5865 5863 5863 5863 5863 5863 5862 5862 5862 5861
5875 5874 5872 5872 5872 5872 5871 5871 5871 5871 5871 5871 5871 5871 5871 5871 5871 5872 5872 5871 5871 5870 5870 5870 5869 5869 5868 5868 5867 5866 5865 5865 5864 5864 5863 5863 5862 5862 5862 5861 5861 5860 5860
5874 5873 5871 5870 5870 5870 5870 5870 5871 5871 5871 5871 5870 5870 5870 5871 5871 5872 5872 5872 5872 5871 5870 5870 5869 5868 5867 5867 5867 5866 5866 5865 5864 5863 5863 5862 5861 5861 5861 5860 5860 5859 5858
5871 5871 5870 5869 5869 5869 5869 5869 5869 5869 5870 5870 5870 5870 5870 5871 5871 5872 5872 5872 5872 5871 5871 5870 5869 5868 5867 5866 5866 5866 5865 5865 5864 5863 5863 5861 5860 5859 5858 5857 5857 5856 5856
5869 5869 5868 5867 5867 5867 5867 5867 5867 5868 5868 5868 5868 5869 5869 5870 5871 5871 5871 5871 5871 5870 5870 5869 5868 5868 5867 5866 5866 5864 5864 5864 5862 5862 5862 5860 5860 5858 5857 5856 5855 5854 5853
5866 5866 5866 5865 5864 5864 5865 5864 5865 5865 5866 5866 5866 5867 5868 5868 5869 5869 5869 5869 5869 5868 5868 5867 5867 5866 5865 5865 5864 5863 5862 5861 5860 5859 5859 5857 5856 5855 5855 5854 5854 5853 5852
5863 5863 5864 5863 5862 5862 5861 5862 5862 5863 5863 5864 5863 5864 5865 5865 5866 5866 5866 5866 5866 5866 5865 5865 5865 5864 5864 5864 5862 5861 5860 5859 5858 5857 5856 5854 5853 5852 5852 5851 5850 5849 5847
5860 5860 5861 5860 5860 5859 5860 5858 5859 5860 5861 5861 5861 5861 5861 5862 5863 5864 5863 5863 5862 5862 5862 5862 5861 5861 5860 5861 5861 5860 5858 5857 5855 5854 5854 5852 5848 5848 5846 5845 5843 5842 5841
5856 5857 5857 5857 5857 5856 5857 5855 5856 5856 5857 5858 5858 5858 5858 5858 5859 5859 5860 5859 5858 5857 5857 5858 5858 5858 5858 5857 5857 5856 5855 5854 5853 5850 5848 5847 5845 5841 5840 5838 5836 5833 5832
5852 5853 5854 5855 5854 5853 5853 5853 5853 5853 5853 5853 5854 5854 5854 5855 5855 5854 5854 5856 5855 5854 5854 5854 5854 5854 5853 5853 5851 5850 5849 5847 5847 5845 5843 5841 5839 5836 5834 5830 5828 5827 5824
5847 5849 5850 5850 5850 5850 5850 5850 5850 5850 5849 5849 5850 5850 5849 5850 5850 5850 5850 5850 5850 5849 5850 5850 5850 5850 5849 5848 5847 5845 5843 5841 5838 5836 5834 5831 5829 5827 5825 5823 5821 5819 5816
5842 5843 5845 5844 5844 5844 5846 5846 5845 5846 5847 5844 5846 5846 5845 5845 5844 5845 5845 5845 5846 5846 5846 5845 5845 5844 5843 5842 5840 5838 5837 5834 5832 5830 5828 5824 5821 5818 5816 5812 5810 5808 5805
5831 5839 5839 5839 5839 5839 5841 5842 5841 5841 5841 5841 5842 5842 5842 5840 5840 5840 5841 5841 5841 5841 5840 5839 5838 5836 5835 5834 5833 5831 5829 5826 5824 5821 5819 5815 5812 5808 5805 5801 5798 5795 5792
5823 5832 5835 5834 5834 5834 5834 5835 5836 5836 5835 5837 5836 5837 5836 5836 5835 5835 5836 5835 5835 5834 5834 5833 5831 5830 5828 5827 5826 5824 5821 5819 5815 5812 5809 5806 5803 5799 5794 5790 5786 5783 5780
5820 5818 5831 5830 5829 5828 5828 5829 5829 5831 5831 5831 5830 5830 5831 5831 5830 5830 5830 5829 5828 5828 5827 5825 5824 5824 5822 5821 5818 5816 5813 5810 5806 5804 5800 5797 5793 5790 5785 5780 5774 5769 5765
5817 5812 5819 5824 5823 5822 5822 5822 5823 5824 5825 5824 5824 5824 5824 5824 5823 5824 5823 5823 5822 5821 5820 5818 5817 5816 5813 5813 5811 5809 5806 5801 5797 5792 5789 5784 5780 5775 5768 5761 5757 5752 5747
5815 5807 5810 5815 5816 5817 5815 5816 5816 5817 5818 5818 5818 5819 5819 5818 5817 5817 5816 5816 5814 5814 5813 5812 5811 5808 5806 5803 5802 5798 5796 5794 5788 5782 5777 5770 5763 5758 5752 5746 5740 5735 5730
5812 5803 5801 5805 5809 5810 5807 5809 5809 5810 5810 5812 5811 5812 5812 5811 5811 5810 5810 5809 5807 5808 5807 5805 5802 5799 5797 5794 5790 5787 5784 5779 5775 5770 5763 5756 5749 5743 5736 5730 5724 5719 5711
5806 5799 5796 5794 5801 5802 5799 5802 5802 5803 5803 5804 5804 5805 5804 5804 5804 5803 5802 5802 5800 5800 5798 5796 5794 5791 5788 5784 5781 5776 5770 5766 5759 5755 5750 5743 5736 5728 5720 5711 5703 5697 5689
5795 5794 5792 5787 5792 5792 5792 5795 5795 5794 5795 5796 5796 5796 5795 5796 5795 5795 5794 5794 5792 5792 5789 5786 5783 5779 5777 5773 5769 5765 5759 5752 5746 5740 5736 5730 5722 5711 5702 5692 5685 5676 5666
5784 5786 5783 5781 5782 5783 5784 5787 5788 5786 5786 5789 5789 5788 5788 5787 5787 5787 5786 5785 5784 5781 5779 5776 5774 5771 5768 5764 5759 5752 5745 5739 5731 5725 5720 5714 5708 5699 5688 5673 5662 5652 5641